| time (UTC) | temp F | wind direction | speed MPH | gust MPH | rain 1hr in | rain 24hr in | rain mn in | humidity % | barometer mb |
| 20260503221058 | 58 | 297 | 3.0 | 12.0 | 0.00 | 0.00 | 0.00 | 41 | 967.6 |
| 20260503220339 | 58 | 296 | 2.0 | 12.0 | 0.00 | 0.00 | 0.00 | 41 | 967.7 |
| 20260503220100 | 57 | 283 | 2.0 | 8.0 | 0.00 | 0.00 | 0.00 | 42 | 967.7 |
| 20260503215336 | 57 | 292 | 2.0 | 8.0 | 0.00 | 0.00 | 0.00 | 40 | 967.7 |
| 20260503214838 | 58 | 304 | 2.0 | 8.0 | 0.00 | 0.00 | 0.00 | 40 | 967.7 |
| 20260503214338 | 59 | 320 | 2.0 | 8.0 | 0.00 | 0.00 | 0.00 | 40 | 967.7 |
| 20260503213836 | 58 | 234 | 2.0 | 7.0 | 0.00 | 0.00 | 0.00 | 41 | 967.7 |
| 20260503213335 | 57 | 204 | 2.0 | 7.0 | 0.00 | 0.00 | 0.00 | 41 | 967.7 |
| 20260503212834 | 57 | 302 | 1.0 | 7.0 | 0.00 | 0.00 | 0.00 | 42 | 967.6 |
| 20260503212333 | 58 | 57 | 1.0 | 7.0 | 0.00 | 0.00 | 0.00 | 41 | 967.6 |
| 20260503211832 | 58 | 234 | 2.0 | 7.0 | 0.00 | 0.00 | 0.00 | 41 | 967.6 |
| 20260503211332 | 58 | 226 | 2.0 | 7.0 | 0.00 | 0.00 | 0.00 | 43 | 967.6 |
| 20260503211057 | 58 | 299 | 2.0 | 7.0 | 0.00 | 0.00 | 0.00 | 42 | 967.6 |
| 20260503210331 | 57 | 312 | 2.0 | 7.0 | 0.00 | 0.00 | 0.00 | 41 | 967.7 |
| 20260503205831 | 57 | 292 | 1.0 | 9.0 | 0.00 | 0.00 | 0.00 | 42 | 967.6 |
| 20260503205329 | 57 | 298 | 2.0 | 10.0 | 0.00 | 0.00 | 0.00 | 40 | 967.7 |
| 20260503205053 | 57 | 302 | 3.0 | 10.0 | 0.00 | 0.00 | 0.00 | 41 | 967.7 |
| 20260503204329 | 57 | 293 | 3.0 | 11.0 | 0.00 | 0.00 | 0.00 | 40 | 967.7 |
| 20260503203829 | 58 | 320 | 2.0 | 11.0 | 0.00 | 0.00 | 0.00 | 40 | 967.8 |
| 20260503203328 | 58 | 283 | 3.0 | 9.0 | 0.00 | 0.00 | 0.00 | 40 | 967.7 |
| 20260503202826 | 58 | 292 | 3.0 | 9.0 | 0.00 | 0.00 | 0.00 | 38 | 967.8 |
| 20260503202551 | 58 | 296 | 3.0 | 13.0 | 0.00 | 0.00 | 0.00 | 39 | 967.8 |
| 20260503201825 | 58 | 225 | 2.0 | 13.0 | 0.00 | 0.00 | 0.00 | 40 | 967.9 |
| 20260503201817 | 58 | 207 | 2.0 | 10.0 | 0.00 | 0.00 | 0.00 | 39 | 967.9 |
| 20260503200825 | 59 | 232 | 2.0 | 10.0 | 0.00 | 0.00 | 0.00 | 39 | 968.0 |
| 20260503200325 | 59 | 187 | 2.0 | 9.0 | 0.00 | 0.00 | 0.00 | 38 | 967.9 |
| 20260503200048 | 59 | 331 | 2.0 | 7.0 | 0.00 | 0.00 | 0.00 | 42 | 967.9 |
| 20260503195324 | 58 | 214 | 2.0 | 7.0 | 0.00 | 0.00 | 0.00 | 43 | 968.0 |
| 20260503194825 | 58 | 317 | 3.0 | 9.0 | 0.00 | 0.00 | 0.00 | 44 | 968.1 |
| 20260503194324 | 57 | 322 | 3.0 | 9.0 | 0.00 | 0.00 | 0.00 | 40 | 968.2 |
| 20260503193824 | 58 | 238 | 2.0 | 9.0 | 0.00 | 0.00 | 0.00 | 39 | 968.2 |
| 20260503193813 | 58 | 236 | 2.0 | 7.0 | 0.00 | 0.00 | 0.00 | 40 | 968.3 |
| 20260503192826 | 58 | 273 | 2.0 | 6.0 | 0.00 | 0.00 | 0.00 | 41 | 968.3 |
| 20260503192543 | 57 | 207 | 3.0 | 8.0 | 0.00 | 0.00 | 0.00 | 41 | 968.3 |
| 20260503191825 | 58 | 235 | 3.0 | 9.0 | 0.00 | 0.00 | 0.00 | 39 | 968.4 |
| 20260503191324 | 58 | 10 | 2.0 | 9.0 | 0.00 | 0.00 | 0.00 | 44 | 968.4 |
| 20260503190825 | 57 | 35 | 2.0 | 7.0 | 0.00 | 0.00 | 0.00 | 42 | 968.3 |
| 20260503190326 | 57 | 291 | 3.0 | 9.0 | 0.00 | 0.00 | 0.00 | 41 | 968.6 |
| 20260503185824 | 58 | 345 | 3.0 | 9.0 | 0.00 | 0.00 | 0.00 | 42 | 968.6 |
| 20260503185324 | 58 | 55 | 3.0 | 9.0 | 0.00 | 0.00 | 0.00 | 42 | 968.7 |
| 20260503184824 | 57 | 298 | 2.0 | 9.0 | 0.00 | 0.00 | 0.00 | 43 | 968.7 |
| 20260503184324 | 57 | 229 | 3.0 | 9.0 | 0.00 | 0.00 | 0.00 | 43 | 968.7 |
| 20260503183825 | 57 | 323 | 2.0 | 8.0 | 0.00 | 0.00 | 0.00 | 43 | 968.8 |
| 20260503183325 | 56 | 300 | 2.0 | 7.0 | 0.00 | 0.00 | 0.00 | 42 | 968.8 |
| 20260503182824 | 57 | 295 | 3.0 | 9.0 | 0.00 | 0.00 | 0.00 | 48 | 968.9 |
| 20260503182322 | 56 | 281 | 3.0 | 10.0 | 0.00 | 0.00 | 0.00 | 47 | 968.9 |
| 20260503181823 | 56 | 24 | 3.0 | 10.0 | 0.00 | 0.00 | 0.00 | 42 | 969.0 |
| 20260503181324 | 56 | 317 | 2.0 | 8.0 | 0.00 | 0.00 | 0.00 | 43 | 968.9 |
| 20260503180823 | 56 | 292 | 3.0 | 13.0 | 0.00 | 0.00 | 0.00 | 45 | 968.9 |
| 20260503180324 | 56 | 59 | 4.0 | 17.0 | 0.00 | 0.00 | 0.00 | 40 | 968.9 |
| 20260503175820 | 57 | 325 | 3.0 | 17.0 | 0.00 | 0.00 | 0.00 | 43 | 969.0 |
| 20260503175322 | 56 | 298 | 3.0 | 11.0 | 0.00 | 0.00 | 0.00 | 47 | 969.1 |
| 20260503174820 | 56 | 280 | 3.0 | 10.0 | 0.00 | 0.00 | 0.00 | 45 | 969.1 |
| 20260503174759 | 56 | 334 | 2.0 | 10.0 | 0.00 | 0.00 | 0.00 | 48 | 969.2 |
| 20260503173818 | 55 | 40 | 1.0 | 5.0 | 0.00 | 0.00 | 0.00 | 47 | 969.2 |
| 20260503173318 | 55 | 234 | 2.0 | 10.0 | 0.00 | 0.00 | 0.00 | 47 | 969.2 |
| 20260503172813 | 55 | 342 | 3.0 | 10.0 | 0.00 | 0.00 | 0.00 | 43 | 969.2 |
| 20260503172758 | 56 | 288 | 3.0 | 12.0 | 0.00 | 0.00 | 0.00 | 45 | 969.3 |
| 20260503171807 | 55 | 150 | 3.0 | 12.0 | 0.00 | 0.00 | 0.00 | 45 | 969.2 |
| 20260503171307 | 55 | 23 | 3.0 | 12.0 | 0.00 | 0.00 | 0.00 | 46 | 969.2 |
| 20260503171029 | 54 | 232 | 3.0 | 12.0 | 0.00 | 0.00 | 0.00 | 44 | 969.4 |
| 20260503170305 | 54 | 81 | 2.0 | 10.0 | 0.00 | 0.00 | 0.00 | 46 | 969.3 |
| 20260503150707 | 49 | 63 | 2.0 | 11.0 | 0.00 | 0.00 | 0.00 | 53 | 970.5 |
| 20260503150202 | 49 | 234 | 3.0 | 11.0 | 0.00 | 0.00 | 0.00 | 54 | 970.4 |
| 20260503130949 | 43 | 299 | 1.0 | 7.0 | 0.00 | 0.00 | 0.00 | 67 | 970.8 |
| 20260503130444 | 43 | 36 | 1.0 | 6.0 | 0.00 | 0.00 | 0.00 | 69 | 970.9 |
| 20260503110331 | 35 | 277 | 0.0 | 0.0 | 0.00 | 0.00 | 0.00 | 83 | 970.2 |
| 20260503081306 | 37 | 42 | 0.0 | 3.0 | 0.00 | 0.00 | 0.00 | 76 | 969.1 |
| 20260503080803 | 37 | 282 | 0.0 | 0.0 | 0.00 | 0.00 | 0.00 | 76 | 969.1 |
| 20260503080302 | 37 | 89 | 0.0 | 4.0 | 0.00 | 0.00 | 0.00 | 76 | 969.0 |
| 20260503072251 | 37 | 38 | 1.0 | 6.0 | 0.00 | 0.00 | 0.00 | 75 | 968.9 |
| 20260503071751 | 38 | 351 | 1.0 | 6.0 | 0.00 | 0.00 | 0.00 | 74 | 968.9 |
| 20260503071246 | 37 | 46 | 0.0 | 4.0 | 0.00 | 0.00 | 0.00 | 75 | 968.9 |
| 20260503071005 | 38 | 26 | 0.0 | 4.0 | 0.00 | 0.00 | 0.00 | 74 | 968.9 |
| 20260503070455 | 37 | 327 | 0.0 | 3.0 | 0.00 | 0.00 | 0.00 | 75 | 968.9 |
| 20260503070335 | 38 | 49 | 1.0 | 4.0 | 0.00 | 0.00 | 0.00 | 74 | 968.9 |
| 20260503055004 | 39 | 32 | 0.0 | 3.0 | 0.00 | 0.00 | 0.00 | 72 | 968.9 |
| 20260503054223 | 39 | 306 | 0.0 | 3.0 | 0.00 | 0.00 | 0.00 | 72 | 969.0 |
| 20260503053716 | 39 | 344 | 0.0 | 0.0 | 0.00 | 0.00 | 0.00 | 72 | 968.9 |
| 20260503053210 | 39 | 286 | 0.0 | 0.0 | 0.00 | 0.00 | 0.00 | 72 | 969.0 |
| 20260503052920 | 39 | 283 | 0.0 | 0.0 | 0.00 | 0.01 | 0.00 | 71 | 969.0 |
| 20260503052416 | 39 | 273 | 0.0 | 0.0 | 0.00 | 0.01 | 0.00 | 71 | 969.0 |
| 20260503051652 | 39 | 267 | 0.0 | 0.0 | 0.00 | 0.02 | 0.00 | 72 | 969.0 |
| 20260503051145 | 40 | 265 | 0.0 | 0.0 | 0.00 | 0.02 | 0.00 | 73 | 969.1 |
| 20260503050640 | 40 | 265 | 0.0 | 0.0 | 0.00 | 0.03 | 0.00 | 73 | 969.1 |
| 20260503050134 | 40 | 265 | 0.0 | 0.0 | 0.00 | 0.03 | 0.00 | 72 | 969.2 |
| 20260503045628 | 40 | 268 | 0.0 | 0.0 | 0.00 | 0.03 | 0.00 | 73 | 969.1 |
| 20260503045121 | 40 | 265 | 0.0 | 0.0 | 0.00 | 0.03 | 0.00 | 73 | 969.2 |
| 20260503044837 | 40 | 265 | 0.0 | 0.0 | 0.00 | 0.03 | 0.00 | 75 | 969.2 |
| 20260503044330 | 40 | 265 | 0.0 | 0.0 | 0.00 | 0.03 | 0.00 | 74 | 969.2 |
| 20260503043604 | 40 | 265 | 0.0 | 0.0 | 0.00 | 0.03 | 0.00 | 75 | 969.1 |
| 20260503043058 | 40 | 265 | 0.0 | 4.0 | 0.00 | 0.03 | 0.00 | 73 | 969.2 |
| 20260503042552 | 40 | 252 | 0.0 | 4.0 | 0.00 | 0.03 | 0.00 | 71 | 969.2 |
| 20260503042046 | 40 | 32 | 0.0 | 0.0 | 0.00 | 0.04 | 0.00 | 77 | 969.2 |
| 20260503041540 | 40 | 290 | 0.0 | 0.0 | 0.00 | 0.05 | 0.00 | 74 | 969.2 |
| 20260503041034 | 40 | 290 | 0.0 | 0.0 | 0.00 | 0.05 | 0.00 | 75 | 969.2 |
| 20260503040528 | 40 | 290 | 0.0 | 0.0 | 0.00 | 0.06 | 0.00 | 74 | 969.2 |
| 20260503040238 | 41 | 290 | 0.0 | 0.0 | 0.00 | 0.07 | 0.00 | 73 | 969.2 |
| 20260503035514 | 41 | 290 | 0.0 | 0.0 | 0.00 | 0.08 | 0.08 | 73 | 969.2 |
| 20260503035008 | 41 | 290 | 0.0 | 1.0 | 0.00 | 0.08 | 0.08 | 73 | 969.3 |
| 20260503034502 | 41 | 290 | 0.0 | 1.0 | 0.00 | 0.08 | 0.08 | 70 | 969.3 |
| 20260503033956 | 41 | 290 | 0.0 | 2.0 | 0.00 | 0.08 | 0.08 | 71 | 969.3 |
| 20260503033708 | 41 | 290 | 0.0 | 2.0 | 0.00 | 0.08 | 0.08 | 71 | 969.4 |
| 20260503032944 | 41 | 55 | 0.0 | 0.0 | 0.00 | 0.08 | 0.08 | 71 | 969.4 |
| 20260503032438 | 42 | 55 | 0.0 | 2.0 | 0.00 | 0.08 | 0.08 | 71 | 969.4 |
| 20260503031932 | 42 | 32 | 0.0 | 2.0 | 0.00 | 0.08 | 0.08 | 71 | 969.5 |
| 20260503031656 | 42 | 33 | 0.0 | 2.0 | 0.00 | 0.08 | 0.08 | 71 | 969.6 |
| 20260503030919 | 41 | 285 | 0.0 | 0.0 | 0.00 | 0.08 | 0.08 | 73 | 969.5 |
| 20260503030642 | 42 | 315 | 0.0 | 0.0 | 0.00 | 0.08 | 0.08 | 74 | 969.5 |
| 20260503025908 | 42 | 315 | 0.0 | 0.0 | 0.00 | 0.08 | 0.08 | 73 | 969.5 |
| 20260503025401 | 42 | 269 | 0.0 | 0.0 | 0.00 | 0.08 | 0.08 | 74 | 969.5 |
| 20260503024856 | 42 | 304 | 0.0 | 0.0 | 0.00 | 0.08 | 0.08 | 72 | 969.5 |
| 20260503024349 | 42 | 256 | 0.0 | 0.0 | 0.00 | 0.08 | 0.08 | 73 | 969.6 |
| 20260503023842 | 42 | 288 | 0.0 | 0.0 | 0.00 | 0.08 | 0.08 | 73 | 969.5 |
| 20260503023336 | 42 | 289 | 0.0 | 0.0 | 0.00 | 0.08 | 0.08 | 73 | 969.6 |
| 20260503023052 | 42 | 296 | 0.0 | 1.0 | 0.00 | 0.08 | 0.08 | 73 | 969.6 |
| 20260503022324 | 42 | 296 | 0.0 | 1.0 | 0.00 | 0.08 | 0.08 | 72 | 969.6 |
| 20260503021818 | 42 | 295 | 0.0 | 1.0 | 0.00 | 0.08 | 0.08 | 73 | 969.6 |
| 20260503021312 | 42 | 302 | 0.0 | 1.0 | 0.00 | 0.08 | 0.08 | 74 | 969.6 |
| 20260503020806 | 42 | 300 | 0.0 | 2.0 | 0.00 | 0.08 | 0.08 | 75 | 969.6 |
| 20260503020259 | 42 | 302 | 0.0 | 3.0 | 0.00 | 0.08 | 0.08 | 75 | 969.5 |
| 20260503020022 | 42 | 313 | 0.0 | 3.0 | 0.00 | 0.08 | 0.08 | 76 | 969.5 |
| 20260503015248 | 42 | 281 | 0.0 | 2.0 | 0.00 | 0.08 | 0.08 | 76 | 969.4 |
| 20260503014742 | 42 | 291 | 0.0 | 2.0 | 0.00 | 0.08 | 0.08 | 77 | 969.4 |
| 20260503014236 | 42 | 273 | 0.0 | 2.0 | 0.00 | 0.08 | 0.08 | 79 | 969.4 |
| 20260503013730 | 42 | 38 | 0.0 | 3.0 | 0.00 | 0.08 | 0.08 | 79 | 969.4 |
| 20260503013224 | 42 | 289 | 0.0 | 3.0 | 0.00 | 0.08 | 0.08 | 79 | 969.4 |
| 20260503012718 | 42 | 302 | 0.0 | 2.0 | 0.00 | 0.08 | 0.08 | 79 | 969.4 |
| 20260503012212 | 42 | 304 | 0.0 | 2.0 | 0.00 | 0.08 | 0.08 | 79 | 969.3 |
| 20260503011706 | 42 | 294 | 0.0 | 1.0 | 0.00 | 0.08 | 0.08 | 79 | 969.3 |
| 20260503011200 | 42 | 300 | 0.0 | 2.0 | 0.00 | 0.08 | 0.08 | 79 | 969.2 |
| 20260503010654 | 42 | 300 | 0.0 | 2.0 | 0.00 | 0.08 | 0.08 | 80 | 969.2 |
| 20260503010148 | 42 | 329 | 0.0 | 0.0 | 0.00 | 0.08 | 0.08 | 81 | 969.2 |
| 20260503005642 | 42 | 329 | 0.0 | 0.0 | 0.00 | 0.08 | 0.08 | 80 | 969.1 |
| 20260503005136 | 43 | 329 | 0.0 | 2.0 | 0.00 | 0.08 | 0.08 | 79 | 969.1 |
| 20260503004630 | 43 | 300 | 0.0 | 5.0 | 0.00 | 0.08 | 0.08 | 79 | 969.1 |
| 20260503004124 | 43 | 177 | 0.0 | 5.0 | 0.00 | 0.08 | 0.08 | 79 | 969.0 |
| 20260503003835 | 43 | 303 | 0.0 | 0.0 | 0.00 | 0.08 | 0.08 | 81 | 968.9 |
| 20260503003112 | 43 | 328 | 0.0 | 0.0 | 0.00 | 0.09 | 0.08 | 80 | 968.9 |
| 20260503002606 | 43 | 300 | 0.0 | 0.0 | 0.00 | 0.09 | 0.08 | 80 | 968.8 |
| 20260503002059 | 43 | 298 | 0.0 | 0.0 | 0.00 | 0.09 | 0.08 | 80 | 968.7 |
| 20260503001554 | 43 | 298 | 0.0 | 0.0 | 0.00 | 0.09 | 0.08 | 79 | 968.8 |
| 20260503001047 | 43 | 311 | 0.0 | 1.0 | 0.00 | 0.09 | 0.08 | 79 | 968.8 |
| 20260503000541 | 43 | 298 | 0.0 | 2.0 | 0.00 | 0.09 | 0.08 | 78 | 968.8 |
| 20260503000036 | 44 | 298 | 0.0 | 2.0 | 0.00 | 0.10 | 0.08 | 77 | 968.8 |
| 20260502235529 | 44 | 305 | 0.0 | 2.0 | 0.00 | 0.10 | 0.08 | 77 | 968.8 |
| 20260502235024 | 44 | 282 | 0.0 | 1.0 | 0.00 | 0.10 | 0.08 | 77 | 968.7 |
| 20260502234518 | 44 | 39 | 0.0 | 0.0 | 0.00 | 0.11 | 0.08 | 79 | 968.6 |
| 20260502234012 | 44 | 32 | 0.0 | 2.0 | 0.00 | 0.11 | 0.08 | 78 | 968.7 |
| 20260502233506 | 44 | 32 | 0.0 | 2.0 | 0.00 | 0.11 | 0.08 | 78 | 968.7 |
| 20260502233217 | 44 | 39 | 0.0 | 2.0 | 0.00 | 0.11 | 0.08 | 77 | 968.7 |
| 20260502232455 | 44 | 22 | 0.0 | 0.0 | 0.00 | 0.11 | 0.08 | 76 | 968.6 |
| 20260502232214 | 44 | 23 | 0.0 | 3.0 | 0.00 | 0.11 | 0.08 | 76 | 968.6 |
| 20260502231442 | 44 | 22 | 1.0 | 3.0 | 0.00 | 0.11 | 0.08 | 76 | 968.6 |
| 20260502230936 | 44 | 340 | 1.0 | 6.0 | 0.00 | 0.11 | 0.08 | 76 | 968.5 |
| 20260502230429 | 45 | 23 | 1.0 | 6.0 | 0.00 | 0.11 | 0.08 | 75 | 968.5 |
| 20260502225924 | 45 | 276 | 0.0 | 2.0 | 0.00 | 0.11 | 0.08 | 75 | 968.5 |
| 20260502225418 | 45 | 345 | 0.0 | 2.0 | 0.00 | 0.11 | 0.08 | 75 | 968.5 |
| 20260502224912 | 45 | 13 | 0.0 | 0.0 | 0.00 | 0.11 | 0.08 | 74 | 968.5 |
| 20260502224406 | 45 | 288 | 0.0 | 2.0 | 0.00 | 0.11 | 0.08 | 75 | 968.4 |
| 20260502223900 | 45 | 289 | 0.0 | 4.0 | 0.00 | 0.11 | 0.08 | 74 | 968.4 |
| 20260502223354 | 45 | 294 | 0.0 | 4.0 | 0.00 | 0.11 | 0.08 | 73 | 968.4 |
| 20260502222847 | 45 | 299 | 0.0 | 1.0 | 0.00 | 0.11 | 0.08 | 75 | 968.4 |
| 20260502222342 | 45 | 290 | 0.0 | 1.0 | 0.00 | 0.11 | 0.08 | 73 | 968.4 |
| 20260502221843 | 46 | 30 | 0.0 | 0.0 | 0.00 | 0.11 | 0.08 | 74 | 968.3 |
| 20260502221339 | 46 | 315 | 0.0 | 0.0 | 0.00 | 0.11 | 0.08 | 74 | 968.4 |